When you browse on this site, cookies collect data to enhance your experience and personalize the content and advertising you see.
Visit our Privacy Policy to learn more. By continuing to use the site, you agree to this use of cookies and data.
  • In Hungary
  • List of Countries
  • For 7 days
  • Water Temperature
  • Weather Map
  • News
  • Weather Widgets
  • user-avatar
    Login

    Hourly Weather Pshikuyhabl

    Today, 20 October, Sunday

    Time Temperature Precipitation Wind Pressure Humidity
    00:00 +17°C° 0 mm 2 mps 762 mmHg 69%
    01:00 +17°C° 0 mm 2 mps 762 mmHg 70%
    02:00 +16°C° 0 mm 2 mps 762 mmHg 71%
    03:00 +16°C° 0 mm 2 mps 762 mmHg 72%
    04:00 +16°C° 0 mm 2 mps 762 mmHg 73%
    05:00 +15°C° 0 mm 2 mps 762 mmHg 74%
    06:00 +15°C° 0 mm 2 mps 762 mmHg 74%
    07:00 +16°C° 0 mm 2 mps 762 mmHg 70%
    08:00 +17°C° 0 mm 2 mps 763 mmHg 65%
    09:00 +18°C° 0 mm 2 mps 763 mmHg 61%
    10:00 +20°C° 0 mm 2 mps 763 mmHg 55%
    11:00 +23°C° 0 mm 2 mps 763 mmHg 49%
    12:00 +25°C° 0 mm 2 mps 762 mmHg 43%
    13:00 +25°C° 0 mm 3 mps 762 mmHg 42%
    14:00 +26°C° 0 mm 3 mps 762 mmHg 41%
    15:00 +26°C° 0 mm 3 mps 762 mmHg 40%
    16:00 +25°C° 0 mm 3 mps 762 mmHg 45%
    17:00 +22°C° 0 mm 3 mps 762 mmHg 49%
    18:00 +21°C° 0 mm 3 mps 762 mmHg 54%
    19:00 +20°C° 0 mm 3 mps 762 mmHg 56%
    20:00 +19°C° 0 mm 3 mps 762 mmHg 58%
    21:00 +19°C° 0 mm 4 mps 762 mmHg 60%
    22:00 +18°C° 0 mm 3 mps 762 mmHg 62%
    23:00 +17°C° 0 mm 3 mps 762 mmHg 64%

    Tomorrow, 21 October, Monday

    Time Temperature Precipitation Wind Pressure Humidity
    00:00 +17°C° 0 mm 3 mps 762 mmHg 66%
    01:00 +16°C° 0 mm 3 mps 762 mmHg 67%
    02:00 +16°C° 0 mm 3 mps 762 mmHg 68%
    03:00 +15°C° 0 mm 2 mps 762 mmHg 69%
    04:00 +14°C° 0 mm 2 mps 762 mmHg 70%
    05:00 +14°C° 0 mm 2 mps 762 mmHg 71%
    06:00 +14°C° 0 mm 2 mps 762 mmHg 71%
    07:00 +14°C° 0 mm 3 mps 763 mmHg 67%
    08:00 +16°C° 0 mm 3 mps 763 mmHg 64%
    09:00 +17°C° 0 mm 4 mps 763 mmHg 60%
    10:00 +19°C° 0 mm 4 mps 763 mmHg 54%
    11:00 +21°C° 0 mm 4 mps 763 mmHg 47%
    12:00 +23°C° 0 mm 5 mps 763 mmHg 41%
    13:00 +23°C° 0 mm 5 mps 762 mmHg 38%
    14:00 +25°C° 0 mm 5 mps 762 mmHg 35%
    15:00 +26°C° 0 mm 5 mps 762 mmHg 32%
    16:00 +23°C° 0 mm 5 mps 762 mmHg 36%
    17:00 +21°C° 0 mm 5 mps 762 mmHg 40%
    18:00 +19°C° 0 mm 5 mps 762 mmHg 44%
    19:00 +19°C° 0 mm 5 mps 762 mmHg 49%
    20:00 +17°C° 0 mm 5 mps 762 mmHg 53%
    21:00 +16°C° 0 mm 5 mps 762 mmHg 58%
    22:00 +15°C° 0 mm 5 mps 762 mmHg 62%
    23:00 +15°C° 0 mm 4 mps 762 mmHg 65%

    Day after tomorrow, 22 October, Tuesday

    Time Temperature Precipitation Wind Pressure Humidity
    00:00 +14°C° 0 mm 4 mps 762 mmHg 69%
    01:00 +13°C° 0 mm 4 mps 762 mmHg 71%
    02:00 +13°C° 0 mm 3 mps 762 mmHg 73%
    03:00 +12°C° 0 mm 3 mps 762 mmHg 75%
    04:00 +12°C° 0 mm 3 mps 762 mmHg 78%
    05:00 +11°C° 0 mm 3 mps 763 mmHg 81%
    06:00 +11°C° 0 mm 3 mps 763 mmHg 83%
    07:00 +12°C° 0 mm 3 mps 763 mmHg 79%
    08:00 +13°C° 0 mm 3 mps 763 mmHg 75%
    09:00 +14°C° 0 mm 4 mps 763 mmHg 70%
    10:00 +17°C° 0 mm 4 mps 763 mmHg 64%
    11:00 +19°C° 0 mm 4 mps 763 mmHg 57%
    12:00 +21°C° 0 mm 4 mps 763 mmHg 50%
    13:00 +21°C° 0 mm 4 mps 763 mmHg 48%
    14:00 +22°C° 0 mm 4 mps 762 mmHg 45%
    15:00 +22°C° 0 mm 5 mps 762 mmHg 42%
    16:00 +21°C° 0 mm 4 mps 762 mmHg 46%
    17:00 +19°C° 0 mm 4 mps 762 mmHg 50%
    18:00 +18°C° 0 mm 4 mps 762 mmHg 54%
    19:00 +17°C° 0 mm 4 mps 762 mmHg 56%
    20:00 +15°C° 0 mm 4 mps 762 mmHg 57%
    21:00 +15°C° 0 mm 4 mps 762 mmHg 58%
    22:00 +14°C° 0 mm 4 mps 762 mmHg 61%
    23:00 +13°C° 0 mm 4 mps 762 mmHg 64%

    23 October, Wednesday

    Time Temperature Precipitation Wind Pressure Humidity
    00:00 +13°C° 0 mm 3 mps 762 mmHg 67%
    01:00 +12°C° 0 mm 3 mps 762 mmHg 69%
    02:00 +12°C° 0 mm 3 mps 762 mmHg 71%
    03:00 +12°C° 0 mm 2 mps 763 mmHg 73%
    04:00 +12°C° 0 mm 2 mps 763 mmHg 75%
    05:00 +12°C° 0 mm 2 mps 763 mmHg 76%
    06:00 +11°C° 0 mm 3 mps 763 mmHg 77%
    07:00 +12°C° 0 mm 3 mps 763 mmHg 72%
    08:00 +13°C° 0 mm 3 mps 763 mmHg 68%
    09:00 +14°C° 0 mm 3 mps 763 mmHg 64%
    10:00 +17°C° 0 mm 4 mps 763 mmHg 58%
    11:00 +19°C° 0 mm 4 mps 763 mmHg 52%
    12:00 +21°C° 0 mm 5 mps 762 mmHg 47%
    13:00 +21°C° 0 mm 5 mps 762 mmHg 44%
    14:00 +22°C° 0 mm 5 mps 762 mmHg 41%
    15:00 +22°C° 0 mm 5 mps 762 mmHg 39%
    16:00 +21°C° 0 mm 5 mps 761 mmHg 42%
    17:00 +19°C° 0 mm 5 mps 761 mmHg 45%
    18:00 +18°C° 0 mm 4 mps 761 mmHg 48%
    19:00 +16°C° 0 mm 5 mps 761 mmHg 50%
    20:00 +16°C° 0 mm 5 mps 761 mmHg 51%
    21:00 +15°C° 0 mm 5 mps 761 mmHg 52%
    22:00 +15°C° 0 mm 4 mps 761 mmHg 55%
    23:00 +14°C° 0 mm 4 mps 761 mmHg 58%

    24 October, Thursday

    Time Temperature Precipitation Wind Pressure Humidity
    00:00 +13°C° 0 mm 4 mps 761 mmHg 61%
    01:00 +13°C° 0 mm 3 mps 761 mmHg 63%
    02:00 +12°C° 0 mm 3 mps 761 mmHg 66%
    03:00 +12°C° 0 mm 3 mps 761 mmHg 68%
    04:00 +11°C° 0 mm 3 mps 761 mmHg 70%
    05:00 +11°C° 0 mm 3 mps 761 mmHg 72%
    06:00 +11°C° 0 mm 3 mps 761 mmHg 73%
    07:00 +12°C° 0 mm 3 mps 761 mmHg 69%
    08:00 +13°C° 0 mm 3 mps 761 mmHg 64%
    09:00 +14°C° 0 mm 3 mps 761 mmHg 60%
    10:00 +17°C° 0 mm 3 mps 761 mmHg 54%
    11:00 +19°C° 0 mm 3 mps 761 mmHg 49%
    12:00 +21°C° 0 mm 3 mps 760 mmHg 43%
    13:00 +21°C° 0 mm 3 mps 760 mmHg 41%
    14:00 +22°C° 0 mm 3 mps 760 mmHg 39%
    15:00 +22°C° 0 mm 3 mps 760 mmHg 37%
    16:00 +21°C° 0 mm 3 mps 760 mmHg 40%
    17:00 +19°C° 0 mm 3 mps 760 mmHg 44%
    18:00 +18°C° 0 mm 3 mps 760 mmHg 48%
    19:00 +17°C° 0 mm 3 mps 760 mmHg 50%
    20:00 +16°C° 0 mm 3 mps 760 mmHg 52%
    21:00 +14°C° 0 mm 3 mps 760 mmHg 54%
    22:00 +14°C° 0 mm 3 mps 760 mmHg 57%
    23:00 +14°C° 0 mm 2 mps 760 mmHg 60%

    25 October, Friday

    Time Temperature Precipitation Wind Pressure Humidity
    00:00 +13°C° 0 mm 2 mps 760 mmHg 62%
    01:00 +13°C° 0 mm 2 mps 760 mmHg 65%
    02:00 +12°C° 0 mm 2 mps 760 mmHg 68%
    03:00 +12°C° 0 mm 1 mps 760 mmHg 71%
    04:00 +12°C° 0 mm 1 mps 760 mmHg 73%
    05:00 +11°C° 0 mm 1 mps 760 mmHg 75%
    06:00 +11°C° 0 mm 1 mps 760 mmHg 77%
    07:00 +12°C° 0 mm 1 mps 760 mmHg 73%
    08:00 +13°C° 0 mm 1 mps 760 mmHg 68%
    09:00 +15°C° 0 mm 1 mps 760 mmHg 64%
    10:00 +16°C° 0 mm 2 mps 760 mmHg 58%
    11:00 +18°C° 0 mm 2 mps 760 mmHg 53%
    12:00 +20°C° 0 mm 2 mps 760 mmHg 47%
    13:00 +21°C° 0 mm 2 mps 760 mmHg 45%
    14:00 +21°C° 0 mm 3 mps 760 mmHg 42%
    15:00 +22°C° 0 mm 3 mps 759 mmHg 40%
    16:00 +20°C° 0 mm 3 mps 759 mmHg 45%
    17:00 +19°C° 0 mm 3 mps 759 mmHg 49%
    18:00 +17°C° 0 mm 3 mps 759 mmHg 53%
    19:00 +17°C° 0 mm 3 mps 759 mmHg 56%
    20:00 +16°C° 0 mm 3 mps 759 mmHg 58%
    21:00 +14°C° 0 mm 3 mps 759 mmHg 60%
    22:00 +14°C° 0 mm 3 mps 759 mmHg 64%
    23:00 +13°C° 0 mm 3 mps 759 mmHg 68%
    Show more